Regional Weather Roundup
Issued by NWS State College, PA

Home | Current Version | Previous Version | Graphics & Text | Print | Product List | Glossary Off
Versions: 1 2 3 4 5 6 7 8 9 10 11 12 13 14 15 16 17 18 19 20 21 22 23 24 25 26 27 28 29 30 31 32 33 34 35 36 37 38 39 40 41 42 43 44 45 46 47 48 49 50

000
ASUS41 KCTP 240610
RWRCTP

REGIONAL WEATHER ROUNDUP
NATIONAL WEATHER SERVICE STATE COLLEGE PA
100 AM EST FRI NOV 24 2017

Note: "fair" indicates few or no clouds below 12,000 feet with no
significant weather and/or obstructions to visibility.

* = STATION THAT DOES NOT REPORT PRECIPITATION /E.G. RAIN...SNOW...ETC/
    THUNDER OR FOG.

PAZ002>004-007>009-013>016-020>023-029>032-240700-
WESTERN PENNSYLVANIA

CITY           SKY/WX    TMP DP  RH WIND       PRES   REMARKS
ERIE           CLEAR     35  24  64 S9        29.98F
MEADVILLE      CLEAR     31  23  72 S6        29.98F
FRANKLIN*      CLEAR     30  22  72 SW6       29.99F
NEW CASTLE     FAIR      30  22  72 CALM      30.02F
BEAVER COUNTY  NOT AVBL
BUTLER*        CLEAR     31  23  72 S5        30.02F
PITTSBURGH INT CLEAR     29  23  78 S3        30.02F
PITTSBURGH     PTCLDY    32  19  58 S7        30.02F
INDIANA*       CLOUDY    30  25  80 CALM      30.05F
LATROBE        CLEAR     27  23  86 CALM      30.05S
WASHINGTON CO* CLEAR     26  23  88 SW3       30.06F
$$

PAZ004>006-010>012-017>019-024>028-033>037-041-042-045-046-049>053-240700-
CENTRAL PENNSYLVANIA

CITY           SKY/WX    TMP DP  RH WIND       PRES   REMARKS
BRADFORD       CLOUDY    32  22  66 SW7       29.95S
DUBOIS         CLOUDY    30  21  69 SW7       29.98S
CLEARFIELD     PTCLDY    30  22  72 SW5       30.00F
JOHNSTOWN      CLEAR     32  19  58 W10       29.98S
ALTOONA        CLEAR     35  20  54 CALM      30.00F
STATE COLLEGE  MOCLDY    35  22  58 W7        30.00F
WILLIAMSPORT   CLOUDY    33  26  75 CALM      30.02F
SELINSGROVE    CLOUDY    28  26  92 CALM      30.04F
FT INDIANTOWN  CLEAR     24  22  94 CALM      30.04S
CAPITAL CITY   CLEAR     28  21  75 CALM      30.05F
HARRISBURG     PTCLDY    28  25  88 CALM      30.04F
YORK           CLEAR     22  22 100 CALM      30.04F
$$

PAZ038>040-043-044-047-048-054-055-060>062-067>071-240700-
EASTERN PENNSYLVANIA

CITY           SKY/WX    TMP DP  RH WIND       PRES   REMARKS
SCRANTON       CLEAR     29  22  75 S3        30.00S
MOUNT POCONO   CLEAR     27  19  72 W9        29.94F
ALLENTOWN      CLEAR     25  19  78 CALM      30.04F
QUAKERTOWN*    CLEAR     25  21  86 CALM      30.04F
READING        CLEAR     28  24  85 CALM      30.04F
LANCASTER      CLEAR     28  24  85 CALM      30.05F
COATESVILLE    CLEAR     32  21  64 W5        30.04F
POTTSTOWN      CLEAR     24  20  84 CALM      30.06F
BLUE BELL      CLEAR     27  23  86 CALM      30.06F
DOYLESTOWN     CLEAR     27  20  75 S3        30.03F
WILLOW GROVE   NOT AVBL
NORTH PHILA    CLEAR     29  22  75 CALM      30.07F
PHILADELPHIA   CLEAR     34  22  61 W3        30.07F
$$




USA.gov is the U.S. government's official web portal to all federal, state and local government web resources and services.